Volver al catálogo

COSMOS 2499

ActivoMilitarPO
NORAD 39765·PAYLOAD·🇷🇺 Russia

Lanzado May 23, 2014 desde Plesetsk Cosmodrome

Loading…

Próximos Pases (próximas 24 horas)

TLE

ActualizadoSource: Space-Track

Época: Sep 14, 2026, 13:48 UTC

1 39765U 14028E   26257.57519041  .00000043  00000-0  11642-3 0  9993
2 39765  82.4526 192.1141 0231914 151.4922 209.9096 12.82904577576482

Sigue COSMOS 2499 en tiempo real con AllMySat

Download on the App Store